DW4577 Cagliari IT current weather conditions

sailwx.info

Wind from 159

Air temperature 24.4° C
Dewpoint 20.4° C

Last reported at 2019-Sep-16 21:01 UTC.
Time now 2019-Sep-16 22:12 UTC

Location: N 39°13' E 009°08'.
View on Google Maps.

See reports from other nearby stations

  
Tides and Currents Weather Stations Pressure Air Temp Water Temp Dewpoint Dewpoint Depression Visibility Wind Speed Wind Dir Waves Ship Positions
date/time (UTC)wind fromknots sea level pressurealtimeterstation pressurevisibilityair tempwater tempwave heightnotes
2019-Sep-16 21:01 159 24.4
2019-Sep-16 20:46 159 25.0
2019-Sep-16 20:30 159 25.0
2019-Sep-16 20:16 159 25.0
2019-Sep-16 20:01 159 25.0
2019-Sep-16 19:45 159 25.0
2019-Sep-16 19:31 159 25.0
2019-Sep-16 19:15 165 25.0
2019-Sep-16 19:00 181 25.0
2019-Sep-16 18:45 172 25.0
2019-Sep-16 18:31 195 25.0
2019-Sep-16 18:15 191 25.0
2019-Sep-16 18:00 202 25.6
2019-Sep-16 17:45 149 25.6
2019-Sep-16 17:30 158 25.6
2019-Sep-16 17:00 200 0 gusting 16 26.1
2019-Sep-16 16:46 197 0 gusting 9 26.7
2019-Sep-16 16:30 158 0 gusting 17 26.7
2019-Sep-16 16:15 141 26.7
2019-Sep-16 16:00 147 4 gusting 18 27.2
2019-Sep-16 15:46 084 4 gusting 15 27.2
2019-Sep-16 15:30 166 0 gusting 26 27.2
2019-Sep-16 15:15 133 5 gusting 19 27.8
2019-Sep-16 09:16 094 0 gusting 13 26.7
2019-Sep-16 09:01 229 5 gusting 14 26.7
2019-Sep-16 08:46 194 6 gusting 19 27.2
2019-Sep-16 08:32 144 26.7
2019-Sep-16 08:16 124 26.1
2019-Sep-16 08:01 099 26.1
2019-Sep-16 07:46 072 25.6
2019-Sep-16 07:31 070 26.1
2019-Sep-16 07:15 075 26.1
2019-Sep-16 07:00 075 25.6
2019-Sep-16 06:45 075 25.0
2019-Sep-16 06:31 075 23.9
2019-Sep-16 06:16 075 23.3
2019-Sep-16 06:01 075 22.2
2019-Sep-16 05:45 075 22.2
2019-Sep-16 05:30 075 21.7
2019-Sep-16 05:15 075 21.7
2019-Sep-16 05:00 076 21.7
2019-Sep-16 04:46 076 21.7
2019-Sep-16 04:31 076 21.7
2019-Sep-16 04:15 076 21.7
2019-Sep-16 04:00 076 22.2
2019-Sep-16 03:45 076 22.2
2019-Sep-16 03:30 076 22.2
2019-Sep-16 03:15 076 22.2
2019-Sep-16 03:01 076 22.2
2019-Sep-16 02:45 076 22.2
2019-Sep-16 02:30 076 22.2
2019-Sep-16 02:15 076 22.2
2019-Sep-16 02:00 076 22.2
2019-Sep-16 01:46 076 22.8
2019-Sep-16 01:31 076 22.8
2019-Sep-16 01:15 076 22.8
2019-Sep-16 01:00 076 22.8
2019-Sep-16 00:47 076 22.8
2019-Sep-16 00:30 076 22.8
2019-Sep-16 00:16 076 23.3
2019-Sep-16 00:00 076 23.3
2019-Sep-15 23:45 076 23.3
2019-Sep-15 23:30 076 23.3
2019-Sep-15 23:15 076 23.3
2019-Sep-15 23:00 123 23.9
2019-Sep-15 22:46 128 23.9
2019-Sep-15 22:30 128 23.9
2019-Sep-15 22:15 128 23.9
2019-Sep-15 22:00 128 24.4
2019-Sep-15 21:46 111 24.4
2019-Sep-15 21:31 111 25.0
2019-Sep-15 21:15 111 25.0
2019-Sep-15 21:00 111 25.0
2019-Sep-15 20:45 111 25.0
2019-Sep-15 20:30 111 25.6
2019-Sep-15 20:15 119 25.6
2019-Sep-15 20:00 146 25.6
2019-Sep-15 19:45 184 25.6
2019-Sep-15 19:30 178 25.6
2019-Sep-15 19:15 135 25.6
2019-Sep-15 19:00 163 25.6
2019-Sep-15 18:45 144 25.6
2019-Sep-15 18:30 122 25.6
2019-Sep-15 18:16 163 25.6
2019-Sep-15 18:01 150 26.1
2019-Sep-15 17:46 159 26.1
2019-Sep-15 17:30 183 0 gusting 12 26.1
2019-Sep-15 17:16 138 26.1
2019-Sep-15 17:00 152 1 gusting 12 26.1
2019-Sep-15 16:45 150 26.1
2019-Sep-15 16:31 186 26.1
2019-Sep-15 16:15 186 13 gusting 22 26.1
2019-Sep-15 16:00 208 6 gusting 19 26.1
2019-Sep-15 15:46 196 4 gusting 20 26.7
2019-Sep-15 15:31 190 5 gusting 26 26.7
2019-Sep-15 15:15 194 5 gusting 20 26.7
2019-Sep-15 15:00 213 5 gusting 26 27.2
2019-Sep-15 14:46 192 4 gusting 19 27.2
2019-Sep-15 14:30 184 3 gusting 21 27.8
2019-Sep-15 14:17 121 3 gusting 23 27.8
2019-Sep-15 14:00 150 8 gusting 21 28.3
2019-Sep-15 13:45 212 4 gusting 23 28.9
2019-Sep-15 13:30 182 1 gusting 25 28.3
2019-Sep-15 13:15 157 2 gusting 20 28.9
2019-Sep-15 13:00 207 3 gusting 21 28.3
2019-Sep-15 12:45 150 2 gusting 19 28.3
2019-Sep-15 12:30 148 2 gusting 22 28.3
2019-Sep-15 12:15 144 4 gusting 22 28.3
2019-Sep-15 12:00 173 1 gusting 24 28.3
2019-Sep-15 11:45 161 8 gusting 21 27.8
2019-Sep-15 11:30 136 8 gusting 28 27.8
2019-Sep-15 11:15 195 1 gusting 25 27.8
2019-Sep-15 11:00 137 5 gusting 22 28.3
2019-Sep-15 10:46 161 5 gusting 21 27.8
2019-Sep-15 10:30 162 0 gusting 21 27.8
2019-Sep-15 10:16 173 8 gusting 23 27.8
2019-Sep-15 10:00 158 1 gusting 18 27.2
2019-Sep-15 09:45 103 6 gusting 20 27.2
2019-Sep-15 09:30 151 2 gusting 19 27.2
2019-Sep-15 09:16 140 4 gusting 20 27.2
2019-Sep-15 09:00 080 27.2
2019-Sep-15 08:45 188 27.2
2019-Sep-15 08:31 167 26.7
2019-Sep-15 08:15 159 1 gusting 14 27.2
2019-Sep-15 08:00 164 4 gusting 16 26.7
2019-Sep-15 07:46 192 2 gusting 16 26.1
2019-Sep-15 07:30 211 4 gusting 14 25.6
2019-Sep-15 07:16 194 24.4
2019-Sep-15 07:00 225 23.9
2019-Sep-15 06:45 257 23.3